RAM809 GMMN-RJTT

Flight info

Callsign RAM809
Flight time N/A
Altitude 34000
Route ODAXA DCT PIMUR DCT OXACA DCT DIONY DCT PARKA DCT TLD DCT SIE DCT EDIGO DCT DGO DCT ABRIX DCT BMC29 DCT OLINO DCT RESMI DCT DUCRA/N0489F350 DCT KESUR DCT ALS DCT EKDIV DCT ASVAN DCT BEVUM DCT ADVOP DCT KULUD DCT UMIXA DCT ELPAX DCT KOXIM DCT LIBSI DCT TIPIX DCT PETEV DCT INSOB DCT SISBA/K0906F350 DCT NOKEZ DCT LAGAT/K0920F370 DCT IFOMA DCT NALEL DCT OGNUR DCT RIMAG DCT KUSET DCT TANAM DCT RUKOD DCT IGR DCT LUGUN DCT TIRSA DCT ARBUL DCT UNILA DCT DINOM DCT RUKOL/K0911F390 DCT SUBON DCT GU DCT UDRIL DCT NINON DCT MAGIT DCT SIBIR DCT MANIT DCT IGROD/N0493F390 DCT GODIN
Aircraft B789/H-SDE1E2E3FGHIJ2J3J4J5M1RWXY/LB1D1

Departure

Time 2026-05-01 10:27
Airport Mohammed V International Airport (GMMN)

Arrival

Time N/A
Airport Tokyo Haneda International Airport (RJTT)
Time Latitude Longitude Altitude Speed Heading
2026-05-01 09:44 33.37238 -7.58219 658 ft 0 kts 65°
2026-05-01 09:47 33.37237 -7.58219 658 ft 0 kts 65°
2026-05-01 09:47 33.37238 -7.58219 658 ft 0 kts 65°
2026-05-01 09:48 33.37237 -7.58219 658 ft 0 kts 65°
2026-05-01 09:48 33.37237 -7.58220 658 ft 0 kts 65°
2026-05-01 09:54 33.37244 -7.58205 657 ft 0 kts 65°
2026-05-01 09:55 33.37243 -7.58205 657 ft 0 kts 65°
2026-05-01 09:55 33.37106 -7.58172 658 ft 0 kts 75°
2026-05-01 09:58 33.37106 -7.58173 658 ft 0 kts 75°
2026-05-01 10:00 33.37105 -7.58173 658 ft 0 kts 75°
2026-05-01 10:05 33.37105 -7.58174 658 ft 0 kts 75°
2026-05-01 10:11 33.37102 -7.58189 657 ft 4 kts 80°
2026-05-01 10:11 33.37101 -7.58221 656 ft 4 kts 99°
2026-05-01 10:12 33.37108 -7.58251 656 ft 4 kts 119°
2026-05-01 10:12 33.37112 -7.58259 656 ft 0 kts 121°
2026-05-01 10:14 33.37112 -7.58260 656 ft 0 kts 121°
2026-05-01 10:15 33.37111 -7.58258 656 ft 1 kts 128°
2026-05-01 10:15 33.37107 -7.58256 658 ft 1 kts 149°
2026-05-01 10:15 33.37088 -7.58248 658 ft 7 kts 161°
2026-05-01 10:16 33.37018 -7.58221 658 ft 13 kts 165°
2026-05-01 10:16 33.36911 -7.58186 658 ft 19 kts 165°
2026-05-01 10:16 33.36603 -7.58089 658 ft 23 kts 166°
2026-05-01 10:17 33.36457 -7.58129 658 ft 22 kts 204°
2026-05-01 10:17 33.36248 -7.58203 658 ft 15 kts 240°
2026-05-01 10:17 33.36167 -7.58229 657 ft 13 kts 164°
2026-05-01 10:18 33.35947 -7.58155 657 ft 20 kts 163°
2026-05-01 10:18 33.35804 -7.58106 657 ft 23 kts 163°
2026-05-01 10:18 33.35642 -7.58049 657 ft 26 kts 163°
2026-05-01 10:19 33.35461 -7.57989 657 ft 28 kts 166°
2026-05-01 10:19 33.35274 -7.57973 658 ft 21 kts 223°
2026-05-01 10:19 33.35224 -7.58132 658 ft 22 kts 254°
2026-05-01 10:20 33.35317 -7.58298 658 ft 14 kts 348°
2026-05-01 10:20 33.35563 -7.58378 651 ft 60 kts 345°
2026-05-01 10:20 33.36109 -7.58566 651 ft 102 kts 345°
2026-05-01 10:20 33.36909 -7.58840 658 ft 136 kts 343°
2026-05-01 10:21 33.37900 -7.59179 691 ft 153 kts 342°
2026-05-01 10:21 33.39337 -7.59500 657 ft 7 kts 13°
2026-05-01 10:21 33.39339 -7.59499 657 ft 0 kts 13°
2026-05-01 10:22 33.39340 -7.59499 657 ft 6 kts 13°
2026-05-01 10:22 33.39369 -7.59416 658 ft 8 kts 139°
2026-05-01 10:23 33.39307 -7.59387 658 ft 9 kts 160°
2026-05-01 10:23 33.39005 -7.59257 658 ft 29 kts 160°
2026-05-01 10:23 33.38641 -7.59096 658 ft 78 kts 160°
2026-05-01 10:24 33.37532 -7.58697 658 ft 84 kts 164°
2026-05-01 10:24 33.36494 -7.58342 657 ft 77 kts 164°
2026-05-01 10:25 33.35425 -7.57976 658 ft 73 kts 163°
2026-05-01 10:25 33.35235 -7.58253 659 ft 21 kts 318°
2026-05-01 10:26 33.35289 -7.58284 658 ft 0 kts 345°
2026-05-01 10:26 33.35359 -7.58307 657 ft 36 kts 345°
2026-05-01 10:26 33.36600 -7.58735 657 ft 143 kts 344°
2026-05-01 10:27 33.38760 -7.59504 1159 ft 172 kts 345°
2026-05-01 10:27 33.41300 -7.60306 1466 ft 210 kts 346°
2026-05-01 10:28 33.42744 -7.60813 1785 ft 220 kts 341°
2026-05-01 10:28 33.44899 -7.63644 2736 ft 242 kts 304°
2026-05-01 10:28 33.45819 -7.65390 3171 ft 251 kts 303°
2026-05-01 10:29 33.47646 -7.68896 4665 ft 249 kts 300°
2026-05-01 10:29 33.48563 -7.70655 5373 ft 250 kts 300°
2026-05-01 10:30 33.50429 -7.74234 6585 ft 257 kts 300°
2026-05-01 10:30 33.52339 -7.77902 7738 ft 260 kts 300°
2026-05-01 10:31 33.54265 -7.81605 8967 ft 264 kts 299°
2026-05-01 10:31 33.56218 -7.85361 10157 ft 267 kts 299°
2026-05-01 10:32 33.58203 -7.89154 11238 ft 270 kts 304°
2026-05-01 10:32 33.59638 -7.90656 11508 ft 286 kts 326°
2026-05-01 10:32 33.63119 -7.93604 11634 ft 327 kts 322°
2026-05-01 10:33 33.67063 -7.96909 11806 ft 364 kts 323°
2026-05-01 10:33 33.71327 -8.00494 12594 ft 377 kts 323°
2026-05-01 10:34 33.73482 -8.02313 13129 ft 380 kts 323°
2026-05-01 10:34 33.75618 -8.04112 13664 ft 382 kts 323°
2026-05-01 10:34 33.77800 -8.05950 14179 ft 384 kts 322°
2026-05-01 10:35 33.82188 -8.09655 15164 ft 386 kts 322°
2026-05-01 10:35 33.84390 -8.11516 15646 ft 388 kts 322°
2026-05-01 10:35 33.86599 -8.13383 16117 ft 389 kts 322°
2026-05-01 10:35 33.88815 -8.15258 16565 ft 390 kts 322°
2026-05-01 10:36 33.93274 -8.19034 17455 ft 393 kts 322°
2026-05-01 10:36 33.95628 -8.20731 17859 ft 399 kts 333°
2026-05-01 10:36 33.98279 -8.21797 18253 ft 407 kts 345°
2026-05-01 10:37 34.01115 -8.22145 18641 ft 415 kts 357°
2026-05-01 10:37 34.06806 -8.20515 19290 ft 431 kts 18°
2026-05-01 10:37 34.09587 -8.19137 19571 ft 433 kts 18°
2026-05-01 10:38 34.12372 -8.17724 19888 ft 436 kts 19°
2026-05-01 10:38 34.15178 -8.16303 20196 ft 438 kts 18°
2026-05-01 10:38 34.17997 -8.14893 20501 ft 440 kts 18°
2026-05-01 10:38 34.20829 -8.13477 20819 ft 442 kts 18°
2026-05-01 10:39 34.23641 -8.12061 21086 ft 444 kts 18°
2026-05-01 10:39 34.26499 -8.10618 21373 ft 446 kts 18°
2026-05-01 10:39 34.29365 -8.09174 21649 ft 448 kts 18°
2026-05-01 10:39 34.32255 -8.07719 21905 ft 450 kts 18°
2026-05-01 10:40 34.35151 -8.06258 22174 ft 452 kts 18°
2026-05-01 10:40 34.38059 -8.04789 22451 ft 454 kts 18°
2026-05-01 10:40 34.40979 -8.03313 22706 ft 456 kts 18°
2026-05-01 10:40 34.43911 -8.01831 22953 ft 458 kts 18°
2026-05-01 10:41 34.46854 -8.00342 23205 ft 459 kts 18°
2026-05-01 10:41 34.49808 -7.98846 23478 ft 461 kts 18°
2026-05-01 10:41 34.55749 -7.95833 23919 ft 464 kts 18°
2026-05-01 10:42 34.58731 -7.94320 24111 ft 465 kts 18°
2026-05-01 10:42 34.61722 -7.92800 24306 ft 467 kts 17°
2026-05-01 10:42 34.64721 -7.91275 24509 ft 468 kts 17°
2026-05-01 10:42 34.67730 -7.89745 24683 ft 470 kts 17°
2026-05-01 10:43 34.70747 -7.88208 24867 ft 471 kts 17°
2026-05-01 10:43 34.73772 -7.86666 25037 ft 472 kts 17°
2026-05-01 10:43 34.76801 -7.85121 25275 ft 472 kts 17°
2026-05-01 10:43 34.79837 -7.83572 25435 ft 474 kts 17°
2026-05-01 10:44 34.81854 -7.82541 25550 ft 475 kts 17°
2026-05-01 10:44 34.84904 -7.80983 25722 ft 476 kts 17°
2026-05-01 10:44 34.87961 -7.79419 25897 ft 477 kts 17°
2026-05-01 10:44 34.91031 -7.77847 26056 ft 479 kts 17°
2026-05-01 10:45 34.94105 -7.76272 26237 ft 480 kts 17°
2026-05-01 10:45 34.97186 -7.74692 26408 ft 481 kts 17°
2026-05-01 10:45 35.00275 -7.73106 26596 ft 482 kts 17°
2026-05-01 10:45 35.03371 -7.71516 26772 ft 484 kts 17°
2026-05-01 10:46 35.06476 -7.69920 26945 ft 485 kts 17°
2026-05-01 10:46 35.09589 -7.68319 27103 ft 486 kts 17°
2026-05-01 10:46 35.12710 -7.66712 27286 ft 488 kts 17°
2026-05-01 10:46 35.15840 -7.65099 27445 ft 489 kts 17°
2026-05-01 10:47 35.18978 -7.63480 27618 ft 490 kts 17°
2026-05-01 10:47 35.22130 -7.61853 27787 ft 492 kts 17°
2026-05-01 10:47 35.25285 -7.60223 27947 ft 493 kts 17°
2026-05-01 10:47 35.28443 -7.58589 28204 ft 492 kts 17°
2026-05-01 10:48 35.31602 -7.56954 28372 ft 494 kts 17°
2026-05-01 10:48 35.34772 -7.55314 28538 ft 495 kts 17°
2026-05-01 10:48 35.37955 -7.53664 28720 ft 497 kts 17°
2026-05-01 10:48 35.41139 -7.52011 28868 ft 498 kts 17°
2026-05-01 10:49 35.44332 -7.50353 29030 ft 499 kts 17°
2026-05-01 10:49 35.47539 -7.48686 29187 ft 500 kts 17°
2026-05-01 10:49 35.50733 -7.47024 29336 ft 502 kts 17°
2026-05-01 10:49 35.53956 -7.45346 29538 ft 503 kts 17°
2026-05-01 10:50 35.57172 -7.43670 29701 ft 504 kts 17°
2026-05-01 10:50 35.60403 -7.41985 29876 ft 505 kts 17°
2026-05-01 10:50 35.63611 -7.40311 30019 ft 506 kts 17°
2026-05-01 10:50 35.66857 -7.38615 30180 ft 508 kts 17°
2026-05-01 10:51 35.70111 -7.36913 30324 ft 509 kts 17°
2026-05-01 10:51 35.73374 -7.35205 30458 ft 510 kts 17°
2026-05-01 10:51 35.76635 -7.33496 30595 ft 511 kts 17°
2026-05-01 10:51 35.79910 -7.31779 30721 ft 512 kts 17°
2026-05-01 10:52 35.83197 -7.30054 30860 ft 513 kts 17°
2026-05-01 10:52 35.86485 -7.28327 30982 ft 514 kts 17°
2026-05-01 10:52 35.89779 -7.26595 31114 ft 515 kts 17°
2026-05-01 10:52 35.93087 -7.24854 31246 ft 516 kts 17°
2026-05-01 10:53 35.96394 -7.23112 31375 ft 517 kts 17°
2026-05-01 10:53 35.99706 -7.21366 31549 ft 517 kts 17°
2026-05-01 10:53 36.03007 -7.19621 31866 ft 514 kts 16°
2026-05-01 10:53 36.06301 -7.17882 31974 ft 516 kts 16°
2026-05-01 10:54 36.09597 -7.16143 32141 ft 516 kts 16°
2026-05-01 10:54 36.12902 -7.14393 32345 ft 516 kts 16°
2026-05-01 10:54 36.16197 -7.12645 32535 ft 515 kts 16°
2026-05-01 10:54 36.19490 -7.10900 32755 ft 515 kts 15°
2026-05-01 10:55 36.22780 -7.09156 32957 ft 514 kts 15°
2026-05-01 10:55 36.26028 -7.07431 33164 ft 514 kts 15°
2026-05-01 10:55 36.29304 -7.05689 33372 ft 513 kts 15°
2026-05-01 10:55 36.32587 -7.03941 33636 ft 512 kts 15°
2026-05-01 10:56 36.35854 -7.02201 33843 ft 511 kts 15°
2026-05-01 10:56 36.39121 -7.00461 34043 ft 511 kts 15°
2026-05-01 10:56 36.42386 -6.98719 34182 ft 512 kts 15°
2026-05-01 10:57 36.48952 -6.95211 34173 ft 512 kts 15°
2026-05-01 10:57 36.55457 -6.91727 34189 ft 510 kts 15°
2026-05-01 10:58 36.61967 -6.88239 34185 ft 509 kts 15°
2026-05-01 10:58 36.68468 -6.84744 34168 ft 508 kts 15°
2026-05-01 10:59 36.74950 -6.81256 34163 ft 507 kts 15°
2026-05-01 10:59 36.81437 -6.77760 34166 ft 509 kts 15°
2026-05-01 11:00 36.87939 -6.74245 34169 ft 510 kts 15°
2026-05-01 11:00 36.94443 -6.70726 34173 ft 509 kts 15°
2026-05-01 11:01 37.00941 -6.67203 34171 ft 509 kts 15°
2026-05-01 11:01 37.07438 -6.63672 34166 ft 509 kts 15°
2026-05-01 11:02 37.13940 -6.60134 34168 ft 510 kts 15°
2026-05-01 11:02 37.20447 -6.56585 34167 ft 510 kts 15°
2026-05-01 11:03 37.26959 -6.53028 34162 ft 511 kts 15°
2026-05-01 11:03 37.33205 -6.48681 34164 ft 522 kts 24°
2026-05-01 11:04 37.39320 -6.43884 34154 ft 517 kts 24°
2026-05-01 11:04 37.45424 -6.39124 34148 ft 516 kts 24°
2026-05-01 11:05 37.51523 -6.34341 34146 ft 517 kts 24°
2026-05-01 11:05 37.57619 -6.29555 34150 ft 516 kts 24°
2026-05-01 11:06 37.63719 -6.24759 34155 ft 516 kts 24°
2026-05-01 11:06 37.69813 -6.19954 34153 ft 517 kts 24°
2026-05-01 11:07 37.78971 -6.12718 34157 ft 518 kts 24°
2026-05-01 11:07 37.85084 -6.07877 34149 ft 517 kts 24°
2026-05-01 11:08 37.91139 -6.03068 34148 ft 511 kts 24°
2026-05-01 11:09 38.00187 -5.95855 34141 ft 513 kts 25°
2026-05-01 11:09 38.06215 -5.91016 34136 ft 513 kts 25°
2026-05-01 11:10 38.15217 -5.83781 34134 ft 512 kts 25°
2026-05-01 11:10 38.21213 -5.78955 34134 ft 513 kts 25°
2026-05-01 11:11 38.27242 -5.74085 34140 ft 514 kts 25°
2026-05-01 11:11 38.33262 -5.69215 34143 ft 512 kts 26°
2026-05-01 11:12 38.39242 -5.64367 34142 ft 508 kts 26°
2026-05-01 11:12 38.45221 -5.59516 34144 ft 510 kts 26°
2026-05-01 11:13 38.51207 -5.54642 34143 ft 510 kts 26°
2026-05-01 11:13 38.57193 -5.49764 34146 ft 511 kts 27°
2026-05-01 11:14 38.63194 -5.44878 34141 ft 511 kts 26°
2026-05-01 11:14 38.69216 -5.40038 34143 ft 512 kts 27°
2026-05-01 11:15 38.75229 -5.35152 34142 ft 511 kts 27°
2026-05-01 11:15 38.81232 -5.30290 34143 ft 509 kts 28°
2026-05-01 11:16 38.87201 -5.25430 34143 ft 508 kts 28°
2026-05-01 11:16 38.93169 -5.20571 34142 ft 508 kts 28°
2026-05-01 11:17 38.99135 -5.15697 34146 ft 508 kts 28°
2026-05-01 11:17 39.05089 -5.10800 34149 ft 508 kts 29°
2026-05-01 11:18 39.10985 -5.05916 34148 ft 507 kts 29°
2026-05-01 11:18 39.16922 -5.01009 34151 ft 508 kts 29°
2026-05-01 11:19 39.22862 -4.96074 34152 ft 508 kts 29°
2026-05-01 11:19 39.28800 -4.91141 34155 ft 507 kts 30°
2026-05-01 11:20 39.34719 -4.86206 34142 ft 506 kts 30°
2026-05-01 11:20 39.40640 -4.81265 34147 ft 506 kts 30°
2026-05-01 11:21 39.46551 -4.76319 34161 ft 507 kts 30°
2026-05-01 11:21 39.52484 -4.71346 34151 ft 508 kts 31°
2026-05-01 11:22 39.58417 -4.66361 34145 ft 508 kts 31°
2026-05-01 11:22 39.64348 -4.61370 34148 ft 508 kts 31°
2026-05-01 11:23 39.70281 -4.56364 34149 ft 508 kts 31°
2026-05-01 11:23 39.76193 -4.51368 34157 ft 506 kts 31°
2026-05-01 11:24 39.82096 -4.46367 34153 ft 507 kts 31°
2026-05-01 11:25 39.90959 -4.38840 34154 ft 508 kts 31°
2026-05-01 11:25 40.00060 -4.31839 34151 ft 507 kts 23°
2026-05-01 11:26 40.09535 -4.26078 34157 ft 504 kts 23°
2026-05-01 11:27 40.15878 -4.22197 34161 ft 503 kts 23°
2026-05-01 11:27 40.22230 -4.18312 34170 ft 505 kts 23°
2026-05-01 11:28 40.28605 -4.14399 34170 ft 507 kts 23°
2026-05-01 11:28 40.34991 -4.10474 34180 ft 506 kts 23°
2026-05-01 11:29 40.44547 -4.04585 34175 ft 506 kts 23°
2026-05-01 11:30 40.54100 -3.98677 34198 ft 506 kts 24°
2026-05-01 11:30 40.60469 -3.94729 34206 ft 506 kts 24°
2026-05-01 11:31 40.66840 -3.90771 34218 ft 506 kts 24°
2026-05-01 11:31 40.73207 -3.86807 34222 ft 506 kts 24°
2026-05-01 11:32 40.78498 -3.83506 34178 ft 506 kts 24°
2026-05-01 11:32 40.84854 -3.79533 34190 ft 503 kts 24°
2026-05-01 11:33 40.91171 -3.75577 34175 ft 502 kts 24°
2026-05-01 11:33 40.97484 -3.71615 34174 ft 503 kts 24°
2026-05-01 11:34 41.03800 -3.67642 34170 ft 502 kts 24°
2026-05-01 11:34 41.10070 -3.63689 34172 ft 502 kts 24°
2026-05-01 11:35 41.16435 -3.59776 34180 ft 499 kts 19°
2026-05-01 11:35 41.22843 -3.56292 34162 ft 501 kts 21°
2026-05-01 11:36 41.29301 -3.52759 34164 ft 502 kts 20°
2026-05-01 11:36 41.35757 -3.49236 34158 ft 501 kts 21°
2026-05-01 11:37 41.42205 -3.45694 34151 ft 501 kts 20°
2026-05-01 11:37 41.48648 -3.42159 34146 ft 499 kts 20°
2026-05-01 11:38 41.55018 -3.38647 34146 ft 493 kts 20°
2026-05-01 11:38 41.61317 -3.35172 34137 ft 495 kts 20°
2026-05-01 11:39 41.67687 -3.31646 34142 ft 496 kts 20°
2026-05-01 11:39 41.74061 -3.28113 34149 ft 496 kts 21°
2026-05-01 11:40 41.80427 -3.24575 34144 ft 494 kts 21°
2026-05-01 11:40 41.86787 -3.21035 34145 ft 495 kts 21°
2026-05-01 11:41 41.93107 -3.17507 34153 ft 496 kts 21°
2026-05-01 11:41 41.99465 -3.13951 34135 ft 493 kts 20°
2026-05-01 11:42 42.05779 -3.10413 34130 ft 493 kts 20°
2026-05-01 11:42 42.12104 -3.06861 34149 ft 493 kts 21°
2026-05-01 11:43 42.18421 -3.03304 34142 ft 489 kts 21°
2026-05-01 11:43 42.24674 -2.99778 34137 ft 487 kts 21°
2026-05-01 11:44 42.34061 -2.94468 34140 ft 488 kts 21°
2026-05-01 11:44 42.40331 -2.90913 34152 ft 489 kts 21°
2026-05-01 11:45 42.46553 -2.87167 34178 ft 490 kts 28°
2026-05-01 11:45 42.52506 -2.82661 34144 ft 490 kts 27°
2026-05-01 11:46 42.58459 -2.78170 34160 ft 489 kts 27°
2026-05-01 11:46 42.64413 -2.73660 34174 ft 491 kts 27°
2026-05-01 11:47 42.70337 -2.69167 34178 ft 490 kts 27°
2026-05-01 11:47 42.76299 -2.64633 34183 ft 494 kts 27°
2026-05-01 11:48 42.82323 -2.60043 34188 ft 497 kts 27°
2026-05-01 11:48 42.88370 -2.55422 34190 ft 498 kts 27°
2026-05-01 11:49 42.94413 -2.50797 34153 ft 498 kts 27°
2026-05-01 11:49 43.00449 -2.46166 34148 ft 498 kts 27°
2026-05-01 11:50 43.06484 -2.41525 34155 ft 498 kts 27°
2026-05-01 11:50 43.12516 -2.36877 34158 ft 498 kts 28°
2026-05-01 11:51 43.18547 -2.32217 34156 ft 497 kts 27°
2026-05-01 11:51 43.24570 -2.27554 34148 ft 497 kts 28°
2026-05-01 11:52 43.30627 -2.22852 34146 ft 502 kts 28°
2026-05-01 11:52 43.36693 -2.18133 34149 ft 501 kts 28°
2026-05-01 11:53 43.42723 -2.13432 34156 ft 501 kts 28°
2026-05-01 11:53 43.48770 -2.08706 34153 ft 499 kts 28°
2026-05-01 11:54 43.54802 -2.03981 34159 ft 499 kts 28°
2026-05-01 11:54 43.60831 -1.99248 34161 ft 499 kts 28°
2026-05-01 11:55 43.66650 -1.94067 34181 ft 499 kts 38°
2026-05-01 11:55 43.72021 -1.88122 34168 ft 502 kts 38°
2026-05-01 11:56 43.77497 -1.82096 34176 ft 503 kts 38°
2026-05-01 11:56 43.82955 -1.76057 34178 ft 502 kts 38°
2026-05-01 11:57 43.88404 -1.70018 34167 ft 501 kts 38°
2026-05-01 11:57 43.93836 -1.63982 34172 ft 500 kts 38°
2026-05-01 11:58 43.99267 -1.57932 34173 ft 500 kts 38°
2026-05-01 11:59 44.07425 -1.48819 34181 ft 504 kts 39°
2026-05-01 11:59 44.12844 -1.42747 34182 ft 504 kts 39°
2026-05-01 12:00 44.21016 -1.33561 34180 ft 503 kts 39°
2026-05-01 12:01 44.29139 -1.24397 34178 ft 503 kts 39°
2026-05-01 12:01 44.34569 -1.18254 34185 ft 502 kts 39°
2026-05-01 12:02 44.39988 -1.12106 34189 ft 502 kts 39°
2026-05-01 12:02 44.45420 -1.05929 34184 ft 504 kts 39°
2026-05-01 12:03 44.50861 -0.99726 34186 ft 505 kts 39°
2026-05-01 12:03 44.56307 -0.93503 34182 ft 505 kts 39°
2026-05-01 12:04 44.61742 -0.87276 34184 ft 503 kts 39°
2026-05-01 12:04 44.67163 -0.81050 34183 ft 504 kts 39°
2026-05-01 12:05 44.72591 -0.74800 34177 ft 504 kts 39°
2026-05-01 12:05 44.80710 -0.65422 34185 ft 506 kts 39°
2026-05-01 12:06 44.86086 -0.59194 34195 ft 505 kts 40°
2026-05-01 12:06 44.91509 -0.52894 34183 ft 504 kts 40°
2026-05-01 12:07 44.96908 -0.46608 34179 ft 503 kts 40°
2026-05-01 12:07 45.02315 -0.40295 34190 ft 505 kts 39°
2026-05-01 12:08 45.07741 -0.33946 34196 ft 506 kts 40°
2026-05-01 12:08 45.13170 -0.27575 34197 ft 507 kts 40°
2026-05-01 12:09 45.18910 -0.21854 34225 ft 505 kts 26°
2026-05-01 12:09 45.25124 -0.17385 34210 ft 506 kts 26°
2026-05-01 12:10 45.34459 -0.10590 34218 ft 504 kts 26°
2026-05-01 12:11 45.43840 -0.03761 34214 ft 505 kts 26°
2026-05-01 12:11 45.50094 0.00813 34206 ft 506 kts 26°
2026-05-01 12:12 45.56354 0.05401 34213 ft 506 kts 26°
2026-05-01 12:12 45.62614 0.10003 34221 ft 506 kts 26°
2026-05-01 12:13 45.68871 0.14612 34225 ft 507 kts 26°
2026-05-01 12:13 45.75139 0.19242 34216 ft 506 kts 26°
2026-05-01 12:14 45.81386 0.23869 34216 ft 505 kts 26°
2026-05-01 12:14 45.87628 0.28502 34215 ft 505 kts 26°
2026-05-01 12:15 45.93863 0.33143 34217 ft 505 kts 26°
2026-05-01 12:15 46.00031 0.37748 34222 ft 505 kts 26°
2026-05-01 12:16 46.06255 0.42402 34219 ft 504 kts 26°
2026-05-01 12:16 46.12470 0.47064 34214 ft 503 kts 26°
2026-05-01 12:17 46.18608 0.51680 34223 ft 504 kts 25°
2026-05-01 12:17 46.24806 0.56352 34223 ft 502 kts 25°
2026-05-01 12:18 46.31002 0.61034 34225 ft 503 kts 25°
2026-05-01 12:18 46.37208 0.65738 34240 ft 504 kts 25°
2026-05-01 12:19 46.43370 0.70419 34222 ft 502 kts 25°
2026-05-01 12:19 46.49549 0.75125 34219 ft 502 kts 25°
2026-05-01 12:20 46.55734 0.79847 34219 ft 502 kts 25°
2026-05-01 12:20 46.60877 0.83785 34215 ft 502 kts 25°
2026-05-01 12:21 46.67052 0.88523 34215 ft 501 kts 25°
2026-05-01 12:21 46.73212 0.93262 34209 ft 500 kts 25°
2026-05-01 12:22 46.79370 0.98010 34212 ft 501 kts 25°
2026-05-01 12:22 46.85549 1.02788 34217 ft 503 kts 25°
2026-05-01 12:23 46.91842 1.07220 34213 ft 502 kts 21°
2026-05-01 12:23 46.98208 1.11414 34215 ft 501 kts 21°
2026-05-01 12:24 47.04551 1.15579 34220 ft 499 kts 21°
2026-05-01 12:24 47.10882 1.19757 34219 ft 499 kts 21°
2026-05-01 12:25 47.20397 1.26049 34208 ft 503 kts 22°
2026-05-01 12:26 47.26715 1.30250 34206 ft 503 kts 22°
2026-05-01 12:26 47.36225 1.36581 34204 ft 502 kts 22°
2026-05-01 12:27 47.45774 1.42968 34211 ft 503 kts 24°
2026-05-01 12:28 47.55159 1.49268 34217 ft 503 kts 24°
2026-05-01 12:29 47.64821 1.55782 34212 ft 505 kts 24°
2026-05-01 12:29 47.74397 1.62263 34210 ft 504 kts 25°
2026-05-01 12:30 47.83960 1.68761 34211 ft 502 kts 26°
2026-05-01 12:31 47.90332 1.73109 34211 ft 505 kts 27°
2026-05-01 12:31 47.96721 1.77475 34217 ft 505 kts 27°
2026-05-01 12:32 48.03094 1.81844 34201 ft 502 kts 27°
2026-05-01 12:32 48.12578 1.88370 34214 ft 503 kts 27°
2026-05-01 12:33 48.18947 1.92766 34215 ft 504 kts 27°
2026-05-01 12:33 48.25328 1.97182 34221 ft 505 kts 28°
2026-05-01 12:34 48.31715 2.01617 34225 ft 506 kts 28°
2026-05-01 12:34 48.38097 2.06058 34226 ft 505 kts 28°
2026-05-01 12:35 48.44467 2.10504 34211 ft 504 kts 29°
2026-05-01 12:35 48.50833 2.14961 34208 ft 504 kts 29°
2026-05-01 12:36 48.57162 2.19517 34220 ft 501 kts 36°
2026-05-01 12:36 48.63019 2.25208 34281 ft 501 kts 37°
2026-05-01 12:37 48.65951 2.28066 34479 ft 500 kts 37°
2026-05-01 12:37 48.68866 2.30926 34646 ft 500 kts 37°
2026-05-01 12:37 48.71782 2.33795 34802 ft 500 kts 37°
2026-05-01 12:37 48.74699 2.36661 34967 ft 500 kts 37°
2026-05-01 12:38 48.77619 2.39530 35119 ft 500 kts 37°
2026-05-01 12:38 48.80538 2.42406 35215 ft 502 kts 37°
2026-05-01 12:38 48.86401 2.48199 35204 ft 501 kts 37°
2026-05-01 12:39 48.92229 2.53969 35207 ft 499 kts 37°
2026-05-01 12:39 48.97979 2.59801 35214 ft 496 kts 39°
2026-05-01 12:40 49.03678 2.65773 35213 ft 499 kts 38°
2026-05-01 12:40 49.09383 2.71826 35213 ft 500 kts 38°
2026-05-01 12:41 49.15102 2.77896 35220 ft 501 kts 38°
2026-05-01 12:41 49.20812 2.83969 35230 ft 500 kts 38°
2026-05-01 12:42 49.26440 2.89984 35225 ft 499 kts 38°
2026-05-01 12:42 49.32095 2.96035 35220 ft 500 kts 38°
2026-05-01 12:43 49.37791 3.02154 35222 ft 500 kts 38°
2026-05-01 12:43 49.43484 3.08283 35228 ft 500 kts 38°
2026-05-01 12:44 49.49165 3.14420 35221 ft 499 kts 37°
2026-05-01 12:45 49.60470 3.26682 35230 ft 500 kts 38°
2026-05-01 12:45 49.66150 3.32869 35231 ft 500 kts 38°
2026-05-01 12:46 49.71833 3.39079 35226 ft 499 kts 37°
2026-05-01 12:46 49.77448 3.45230 35232 ft 498 kts 37°
2026-05-01 12:47 49.83106 3.51449 35232 ft 499 kts 37°
2026-05-01 12:47 49.88773 3.57694 35237 ft 500 kts 37°
2026-05-01 12:48 49.94416 3.63933 35237 ft 501 kts 37°
2026-05-01 12:48 50.00064 3.70193 35235 ft 497 kts 37°
2026-05-01 12:49 50.05689 3.76449 35230 ft 497 kts 37°
2026-05-01 12:49 50.11316 3.82724 35231 ft 497 kts 37°
2026-05-01 12:50 50.16934 3.89008 35238 ft 496 kts 37°
2026-05-01 12:50 50.22475 3.95223 35236 ft 495 kts 37°
2026-05-01 12:51 50.28070 4.01519 35233 ft 496 kts 37°
2026-05-01 12:52 50.36480 4.11016 35246 ft 497 kts 37°
2026-05-01 12:52 50.44815 4.20470 35254 ft 495 kts 37°
2026-05-01 12:53 50.53161 4.29979 35257 ft 495 kts 37°
2026-05-01 12:54 50.58735 4.36354 35262 ft 496 kts 37°
2026-05-01 12:54 50.67121 4.45980 35263 ft 498 kts 37°
2026-05-01 12:55 50.75430 4.55561 35260 ft 495 kts 37°
2026-05-01 12:56 50.80983 4.61989 35257 ft 495 kts 37°
2026-05-01 12:56 50.86493 4.68385 35258 ft 494 kts 37°
2026-05-01 12:57 50.92041 4.74845 35245 ft 496 kts 37°
2026-05-01 12:57 51.00370 4.84580 35247 ft 496 kts 37°
2026-05-01 12:58 51.05924 4.91096 35244 ft 496 kts 37°
2026-05-01 12:59 51.14238 5.00889 35247 ft 496 kts 37°
2026-05-01 12:59 51.22552 5.10725 35250 ft 496 kts 37°
2026-05-01 13:00 51.30848 5.20586 35235 ft 497 kts 37°
2026-05-01 13:01 51.39151 5.30502 35270 ft 495 kts 37°
2026-05-01 13:02 51.47424 5.40427 35272 ft 496 kts 37°
2026-05-01 13:07 52.07601 6.14037 35278 ft 492 kts 37°
2026-05-01 13:08 52.13037 6.20813 35278 ft 492 kts 37°
2026-05-01 13:08 52.17544 6.26447 35278 ft 490 kts 37°
2026-05-01 13:09 52.22897 6.33157 35287 ft 491 kts 37°
2026-05-01 13:09 52.28307 6.39961 35288 ft 491 kts 37°
2026-05-01 13:10 52.33716 6.46785 35273 ft 490 kts 37°
2026-05-01 13:10 52.39083 6.53576 35278 ft 487 kts 37°
2026-05-01 13:11 52.44447 6.60386 35288 ft 488 kts 37°
2026-05-01 13:11 52.49809 6.67217 35289 ft 488 kts 37°
2026-05-01 13:12 52.55171 6.74066 35291 ft 488 kts 37°
2026-05-01 13:12 52.60528 6.80932 35297 ft 488 kts 37°
2026-05-01 13:13 52.65880 6.87814 35309 ft 488 kts 37°
2026-05-01 13:13 52.71228 6.94712 35311 ft 488 kts 37°
2026-05-01 13:14 52.76535 7.01580 35299 ft 488 kts 37°
2026-05-01 13:14 52.81874 7.08509 35303 ft 487 kts 38°
2026-05-01 13:15 52.87171 7.15410 35300 ft 484 kts 38°
2026-05-01 13:15 52.92469 7.22331 35300 ft 485 kts 38°
2026-05-01 13:16 52.97761 7.29267 35298 ft 485 kts 38°
2026-05-01 13:16 53.03048 7.36219 35314 ft 485 kts 38°
2026-05-01 13:17 53.13628 7.50198 35318 ft 485 kts 38°
2026-05-01 13:18 53.21547 7.60721 35320 ft 486 kts 38°
2026-05-01 13:18 53.26824 7.67761 35320 ft 486 kts 38°
2026-05-01 13:19 53.32025 7.74724 35318 ft 483 kts 38°
2026-05-01 13:20 53.39824 7.85204 35324 ft 482 kts 38°
2026-05-01 13:20 53.45048 7.92254 35326 ft 482 kts 38°
2026-05-01 13:21 53.52886 8.02874 35327 ft 482 kts 38°
2026-05-01 13:21 53.58109 8.09979 35330 ft 482 kts 38°
2026-05-01 13:22 53.63318 8.17089 35334 ft 482 kts 38°
2026-05-01 13:22 53.68524 8.24218 35338 ft 482 kts 38°
2026-05-01 13:23 53.73729 8.31367 35336 ft 483 kts 39°
2026-05-01 13:23 53.78932 8.38540 35343 ft 482 kts 39°
2026-05-01 13:24 53.84142 8.45746 35356 ft 484 kts 39°
2026-05-01 13:25 53.91954 8.56594 35354 ft 484 kts 39°
2026-05-01 13:25 53.97160 8.63854 35353 ft 485 kts 39°
2026-05-01 13:26 54.02369 8.71143 35353 ft 485 kts 39°
2026-05-01 13:26 54.07567 8.78440 35351 ft 485 kts 39°
2026-05-01 13:27 54.12764 8.85762 35353 ft 485 kts 39°
2026-05-01 13:27 54.20490 8.96690 35356 ft 485 kts 40°
2026-05-01 13:28 54.28236 9.07701 35359 ft 485 kts 40°
2026-05-01 13:29 54.38672 9.22627 35361 ft 487 kts 40°
2026-05-01 13:31 54.54218 9.45051 35379 ft 488 kts 40°
2026-05-01 13:32 54.67172 9.63913 35356 ft 488 kts 40°
2026-05-01 13:33 54.80112 9.82919 35374 ft 487 kts 41°
2026-05-01 13:34 54.90163 9.98709 35378 ft 488 kts 43°
2026-05-01 13:35 54.97462 10.11076 35381 ft 489 kts 44°
2026-05-01 13:36 55.04714 10.23587 35377 ft 489 kts 44°
2026-05-01 13:36 55.11979 10.36071 35375 ft 489 kts 45°
2026-05-01 13:37 55.16786 10.44389 35377 ft 489 kts 45°
2026-05-01 13:37 55.21624 10.52787 35377 ft 489 kts 45°
2026-05-01 13:38 55.28864 10.65418 35379 ft 489 kts 45°
2026-05-01 13:39 55.33682 10.73863 35375 ft 490 kts 45°
2026-05-01 13:39 55.38498 10.82334 35374 ft 490 kts 45°
2026-05-01 13:40 55.43314 10.90836 35378 ft 490 kts 45°
2026-05-01 13:40 55.47681 10.98572 35378 ft 490 kts 45°